,,,PA_Meas_PMT16A,,PR_Meas_QMR101_102,,RH_Meas_QMH101,,SR_Meas_QMS101,,TA_Meas_QMH101,,GenWind,,GenWind,
date,time,status,PA,status,PR,status,RH,status,SR,status,TA,status,DirAvg,status,SpdAvg,
2014-04-26, 00:00:04,VALID,1009.24,VALID,0,VALID,103.886,VALID,0,VALID,25.0583,VALID,47,VALID,0,
2014-04-26, 00:01:04,VALID,1009.23,VALID,0,VALID,104,VALID,0,VALID,25.0388,VALID,47,VALID,0,
2014-04-26, 00:02:04,VALID,1009.2,VALID,0,VALID,104,VALID,0,VALID,25.0388,VALID,47,VALID,0,
2014-04-26, 00:03:04,VALID,1009.2,VALID,0,VALID,104,VALID,0,VALID,25.0388,VALID,47,VALID,0,
2014-04-26, 00:04:04,VALID,1009.12,VALID,0,VALID,104,VALID,0,VALID,24.9998,VALID,47,VALID,0,
2014-04-26, 00:05:04,VALID,1009.14,VALID,0,VALID,104,VALID,0,VALID,24.9998,VALID,47,VALID,0,
2014-04-26, 00:06:04,VALID,1009.13,VALID,0,VALID,104,VALID,0,VALID,24.9608,VALID,47,VALID,0,
2014-04-26, 00:07:04,VALID,1009.1,VALID,0,VALID,104,VALID,0,VALID,24.9394,VALID,47,VALID,0,
2014-04-26, 00:08:04,VALID,1009.1,VALID,0,VALID,104,VALID,0,VALID,24.9413,VALID,47,VALID,0,
2014-04-26, 00:09:04,VALID,1009.05,VALID,0,VALID,104,VALID,0,VALID,24.9218,VALID,47,VALID,0,
2014-04-26, 00:10:04,VALID,1009.04,VALID,0,VALID,104,VALID,0,VALID,24.9218,VALID,47,VALID,0,
2014-04-26, 00:11:04,VALID,1009.03,VALID,0,VALID,104,VALID,0,VALID,24.9004,VALID,47,VALID,0,
2014-04-26, 00:12:04,VALID,1009.02,VALID,0,VALID,104,VALID,0,VALID,24.9023,VALID,47,VALID,0,
2014-04-26, 00:13:04,VALID,1009.01,VALID,0,VALID,104,VALID,0,VALID,24.9023,VALID,47,VALID,0,
2014-04-26, 00:14:04,VALID,1008.99,VALID,0,VALID,104,VALID,0,VALID,24.9023,VALID,47,VALID,0,
2014-04-26, 00:15:04,VALID,1008.99,VALID,0,VALID,104,VALID,0,VALID,24.8828,VALID,47,VALID,0,
2014-04-26, 00:16:04,VALID,1008.95,VALID,0,VALID,104,VALID,0,VALID,24.8633,VALID,47,VALID,0,
2014-04-26, 00:17:04,VALID,1008.97,VALID,0,VALID,104,VALID,0,VALID,24.8438,VALID,47,VALID,0,
2014-04-26, 00:18:04,VALID,1008.95,VALID,0,VALID,104,VALID,0,VALID,24.8438,VALID,47,VALID,0,
2014-04-26, 00:19:04,VALID,1008.92,VALID,0,VALID,104,VALID,0,VALID,24.8244,VALID,47,VALID,0,
2014-04-26, 00:20:04,VALID,1008.93,VALID,0,VALID,104,VALID,0,VALID,24.8049,VALID,47,VALID,0,
2014-04-26, 00:21:04,VALID,1008.89,VALID,0,VALID,104,VALID,0,VALID,24.8049,VALID,47,VALID,0,
2014-04-26, 00:22:04,VALID,1008.9,VALID,0,VALID,104,VALID,0,VALID,24.7854,VALID,47,VALID,0,
2014-04-26, 00:23:04,VALID,1008.91,VALID,0,VALID,104,VALID,0,VALID,24.764,VALID,47,VALID,0,
2014-04-26, 00:24:04,VALID,1008.9,VALID,0,VALID,104,VALID,0,VALID,24.7659,VALID,47,VALID,0,
2014-04-26, 00:25:04,VALID,1008.91,VALID,0,VALID,104,VALID,0,VALID,24.7659,VALID,47,VALID,0,
2014-04-26, 00:26:04,VALID,1008.91,VALID,0,VALID,104,VALID,0,VALID,24.7464,VALID,47,VALID,0,
2014-04-26, 00:27:04,VALID,1008.92,VALID,0,INVALID,109.018,VALID,0,VALID,24.7464,VALID,47,VALID,0,
2014-04-26, 00:28:04,VALID,1008.89,VALID,0,INVALID,109.117,VALID,0,VALID,24.7269,VALID,47,VALID,0,
2014-04-26, 00:29:04,VALID,1008.88,VALID,0,INVALID,109.224,VALID,0,VALID,24.7074,VALID,47,VALID,0,
2014-04-26, 00:30:04,VALID,1008.88,VALID,0,INVALID,109.414,VALID,0,VALID,24.6879,VALID,47,VALID,0,
2014-04-26, 00:31:04,VALID,1008.89,VALID,0,INVALID,109.498,VALID,0,VALID,24.6684,VALID,47,VALID,0,
2014-04-26, 00:32:04,VALID,1008.85,VALID,0,INVALID,109.559,VALID,0,VALID,24.6489,VALID,47,VALID,0,
2014-04-26, 00:33:04,VALID,1008.88,VALID,0,INVALID,109.62,VALID,0,VALID,24.6081,VALID,47,VALID,0,
2014-04-26, 00:34:04,VALID,1008.86,VALID,0,INVALID,109.712,VALID,0,VALID,24.6081,VALID,47,VALID,0,
2014-04-26, 00:35:04,VALID,1008.88,VALID,0,INVALID,109.78,VALID,0,VALID,24.6099,VALID,47,VALID,0,
2014-04-26, 00:36:04,VALID,1008.88,VALID,0,INVALID,109.887,VALID,0,VALID,24.5905,VALID,47,VALID,0,
2014-04-26, 00:37:04,VALID,1008.89,VALID,0,INVALID,109.956,VALID,0,VALID,24.571,VALID,47,VALID,0,
2014-04-26, 00:38:04,VALID,1008.88,VALID,0,INVALID,110.024,VALID,0,VALID,24.571,VALID,47,VALID,0,
2014-04-26, 00:39:04,VALID,1008.9,VALID,0,INVALID,110.085,VALID,0,VALID,24.5515,VALID,47,VALID,0,
2014-04-26, 00:40:04,VALID,1008.88,VALID,0,INVALID,110.131,VALID,0,VALID,24.5496,VALID,47,VALID,0,
2014-04-26, 00:41:04,VALID,1008.91,VALID,0,INVALID,110.169,VALID,0,VALID,24.5496,VALID,47,VALID,0,
2014-04-26, 00:42:04,VALID,1008.86,VALID,0,INVALID,110.238,VALID,0,VALID,24.5515,VALID,47,VALID,0,
2014-04-26, 00:43:04,VALID,1008.88,VALID,0,INVALID,110.23,VALID,0,VALID,24.5515,VALID,47,VALID,0,
2014-04-26, 00:44:04,VALID,1008.87,VALID,0,INVALID,110.284,VALID,0,VALID,24.5515,VALID,47,VALID,0,
2014-04-26, 00:45:04,VALID,1008.87,VALID,0,INVALID,110.345,VALID,0,VALID,24.5496,VALID,47,VALID,0,
2014-04-26, 00:46:04,VALID,1008.86,VALID,0,INVALID,110.368,VALID,0,VALID,24.5905,VALID,47,VALID,0,
2014-04-26, 00:47:04,VALID,1008.85,VALID,0,INVALID,110.406,VALID,0,VALID,24.6099,VALID,47,VALID,0,
2014-04-26, 00:48:04,VALID,1008.81,VALID,0,INVALID,110.444,VALID,0,VALID,24.6099,VALID,47,VALID,0,
2014-04-26, 00:49:04,VALID,1008.84,VALID,0,INVALID,110.505,VALID,0,VALID,24.6099,VALID,47,VALID,0,
2014-04-26, 00:50:04,VALID,1008.79,VALID,0,INVALID,110.512,VALID,0,VALID,24.6294,VALID,47,VALID,0,
2014-04-26, 00:51:04,VALID,1008.79,VALID,0,INVALID,110.543,VALID,0,VALID,24.6294,VALID,47,VALID,0,
2014-04-26, 00:52:04,VALID,1008.76,VALID,0,INVALID,110.566,VALID,0,VALID,24.6294,VALID,47,VALID,0,
2014-04-26, 00:53:04,VALID,1008.76,VALID,0,INVALID,110.543,VALID,0,VALID,24.6703,VALID,47,VALID,0,
2014-04-26, 00:54:04,VALID,1008.74,VALID,0,INVALID,110.589,VALID,0,VALID,24.6489,VALID,47,VALID,0,
2014-04-26, 00:55:04,VALID,1008.71,VALID,0,INVALID,110.612,VALID,0,VALID,24.6489,VALID,47,VALID,0,
2014-04-26, 00:56:04,VALID,1008.71,VALID,0,INVALID,110.612,VALID,0,VALID,24.6489,VALID,47,VALID,0,
2014-04-26, 00:57:04,VALID,1008.71,VALID,0,INVALID,110.634,VALID,0,VALID,24.6489,VALID,47,VALID,0,
2014-04-26, 00:58:04,VALID,1008.66,VALID,0,INVALID,110.634,VALID,0,VALID,24.6489,VALID,47,VALID,0,
2014-04-26, 00:59:04,VALID,1008.66,VALID,0,INVALID,110.673,VALID,0,VALID,24.6489,VALID,47,VALID,0,
2014-04-26, 01:00:04,VALID,1008.65,VALID,0,INVALID,110.68,VALID,0,VALID,24.6489,VALID,47,VALID,0,
2014-04-26, 01:01:04,VALID,1008.67,VALID,0,INVALID,110.673,VALID,0,VALID,24.6684,VALID,47,VALID,0,
2014-04-26, 01:02:04,VALID,1008.64,VALID,0,INVALID,110.688,VALID,0,VALID,24.6684,VALID,47,VALID,0,
2014-04-26, 01:03:04,VALID,1008.65,VALID,0,INVALID,110.673,VALID,0,VALID,24.6684,VALID,47,VALID,0,
2014-04-26, 01:04:04,VALID,1008.61,VALID,0,INVALID,110.665,VALID,0,VALID,24.6276,VALID,47,VALID,0,
2014-04-26, 01:05:04,VALID,1008.63,VALID,0,INVALID,110.688,VALID,0,VALID,24.6684,VALID,47,VALID,0,
2014-04-26, 01:06:04,VALID,1008.63,VALID,0,INVALID,110.695,VALID,0,VALID,24.6684,VALID,47,VALID,0,
2014-04-26, 01:07:04,VALID,1008.65,VALID,0,INVALID,110.703,VALID,0,VALID,24.6684,VALID,47,VALID,0,
2014-04-26, 01:08:04,VALID,1008.64,VALID,0,INVALID,110.703,VALID,0,VALID,24.6879,VALID,47,VALID,0,
2014-04-26, 01:09:04,VALID,1008.64,VALID,0,INVALID,110.703,VALID,0,VALID,24.6879,VALID,47,VALID,0,
2014-04-26, 01:10:04,VALID,1008.63,VALID,0,INVALID,110.711,VALID,0,VALID,24.7074,VALID,47,VALID,0,
2014-04-26, 01:11:04,VALID,1008.61,VALID,0,INVALID,110.741,VALID,0,VALID,24.7074,VALID,47,VALID,0,
2014-04-26, 01:12:04,VALID,1008.6,VALID,0,INVALID,110.764,VALID,0,VALID,24.6879,VALID,47,VALID,0,
2014-04-26, 01:13:04,VALID,1008.6,VALID,0,INVALID,110.756,VALID,0,VALID,24.7074,VALID,47,VALID,0,
2014-04-26, 01:14:04,VALID,1008.62,VALID,0,INVALID,110.741,VALID,0,VALID,24.6879,VALID,47,VALID,0,
2014-04-26, 01:15:04,VALID,1008.6,VALID,0,INVALID,110.741,VALID,0,VALID,24.6879,VALID,47,VALID,0,
2014-04-26, 01:16:04,VALID,1008.56,VALID,0,INVALID,110.772,VALID,0,VALID,24.6879,VALID,47,VALID,0,
2014-04-26, 01:17:04,VALID,1008.58,VALID,0,INVALID,110.749,VALID,0,VALID,24.6684,VALID,47,VALID,0,
2014-04-26, 01:18:04,VALID,1008.56,VALID,0,INVALID,110.779,VALID,0,VALID,24.6489,VALID,47,VALID,0,
2014-04-26, 01:19:04,VALID,1008.55,VALID,0,INVALID,110.787,VALID,0,VALID,24.6489,VALID,47,VALID,0,
2014-04-26, 01:20:04,VALID,1008.54,VALID,0,INVALID,110.795,VALID,0,VALID,24.6294,VALID,47,VALID,0,
2014-04-26, 01:21:04,VALID,1008.53,VALID,0,INVALID,110.802,VALID,0,VALID,24.6294,VALID,47,VALID,0,
2014-04-26, 01:22:04,VALID,1008.54,VALID,0,INVALID,110.802,VALID,0,VALID,24.6294,VALID,47,VALID,0,
2014-04-26, 01:23:04,VALID,1008.48,VALID,0,INVALID,110.833,VALID,0,VALID,24.6294,VALID,47,VALID,0,
2014-04-26, 01:24:04,VALID,1008.48,VALID,0,INVALID,110.825,VALID,0,VALID,24.6081,VALID,47,VALID,0,
2014-04-26, 01:25:04,VALID,1008.49,VALID,0,INVALID,110.856,VALID,0,VALID,24.6081,VALID,47,VALID,0,
2014-04-26, 01:26:04,VALID,1008.48,VALID,0,INVALID,110.856,VALID,0,VALID,24.6294,VALID,47,VALID,0,
2014-04-26, 01:27:04,VALID,1008.47,VALID,0,INVALID,110.878,VALID,0,VALID,24.6294,VALID,47,VALID,0,
2014-04-26, 01:28:04,VALID,1008.46,VALID,0,INVALID,110.878,VALID,0,VALID,24.6294,VALID,47,VALID,0,
2014-04-26, 01:29:04,VALID,1008.45,VALID,0,INVALID,110.924,VALID,0,VALID,24.6099,VALID,47,VALID,0,
2014-04-26, 01:30:04,VALID,1008.43,VALID,0,INVALID,110.917,VALID,0,VALID,24.5905,VALID,47,VALID,0,
2014-04-26, 01:31:04,VALID,1008.43,VALID,0,INVALID,110.886,VALID,0,VALID,24.571,VALID,47,VALID,0,
2014-04-26, 01:32:04,VALID,1008.44,VALID,0,INVALID,110.901,VALID,0,VALID,24.571,VALID,47,VALID,0,
2014-04-26, 01:33:04,VALID,1008.42,VALID,0,INVALID,110.97,VALID,0,VALID,24.5515,VALID,47,VALID,0,
2014-04-26, 01:34:04,VALID,1008.43,VALID,0,INVALID,110.894,VALID,0,VALID,24.5125,VALID,47,VALID,0,
2014-04-26, 01:35:04,VALID,1008.4,VALID,0,INVALID,110.901,VALID,0,VALID,24.5125,VALID,47,VALID,0,
2014-04-26, 01:36:04,VALID,1008.41,VALID,0,INVALID,110.978,VALID,0,VALID,24.5125,VALID,47,VALID,0,
2014-04-26, 01:37:04,VALID,1008.38,VALID,0,INVALID,110.962,VALID,0,VALID,24.493,VALID,47,VALID,0,
2014-04-26, 01:38:04,VALID,1008.38,VALID,0,INVALID,111.016,VALID,0,VALID,24.493,VALID,47,VALID,0,
2014-04-26, 01:39:04,VALID,1008.39,VALID,0,INVALID,111,VALID,0,VALID,24.4735,VALID,47,VALID,0,
2014-04-26, 01:40:04,VALID,1008.38,VALID,0,INVALID,110.985,VALID,0,VALID,24.454,VALID,47,VALID,0,
2014-04-26, 01:41:04,VALID,1008.38,VALID,0,INVALID,111.023,VALID,0,VALID,24.454,VALID,47,VALID,0,
2014-04-26, 01:42:04,VALID,1008.39,VALID,0,INVALID,111.023,VALID,0,VALID,24.4345,VALID,47,VALID,0,
2014-04-26, 01:43:04,VALID,1008.4,VALID,0,INVALID,111.031,VALID,0,VALID,24.454,VALID,47,VALID,0,
2014-04-26, 01:44:04,VALID,1008.38,VALID,0,INVALID,111.023,VALID,0,VALID,24.454,VALID,47,VALID,0,
2014-04-26, 01:45:04,VALID,1008.35,VALID,0,INVALID,111.031,VALID,0,VALID,24.4132,VALID,47,VALID,0,
2014-04-26, 01:46:04,VALID,1008.33,VALID,0,INVALID,111.016,VALID,0,VALID,24.4345,VALID,47,VALID,0,
2014-04-26, 01:47:04,VALID,1008.32,VALID,0,INVALID,111.031,VALID,0,VALID,24.4345,VALID,47,VALID,0,
2014-04-26, 01:48:04,VALID,1008.31,VALID,0,INVALID,111.046,VALID,0,VALID,24.415,VALID,47,VALID,0,
2014-04-26, 01:49:04,VALID,1008.3,VALID,0,INVALID,111.061,VALID,0,VALID,24.415,VALID,47,VALID,0,
2014-04-26, 01:50:04,VALID,1008.27,VALID,0,INVALID,111.061,VALID,0,VALID,24.3956,VALID,47,VALID,0,
2014-04-26, 01:51:04,VALID,1008.27,VALID,0,INVALID,111.054,VALID,0,VALID,24.3742,VALID,47,VALID,0,
2014-04-26, 01:52:04,VALID,1008.26,VALID,0,INVALID,111.046,VALID,0,VALID,24.3956,VALID,47,VALID,0,
2014-04-26, 01:53:04,VALID,1008.23,VALID,0,INVALID,111.054,VALID,0,VALID,24.3761,VALID,47,VALID,0,
2014-04-26, 01:54:04,VALID,1008.24,VALID,0,INVALID,111.046,VALID,0,VALID,24.3761,VALID,47,VALID,0,
2014-04-26, 01:55:04,VALID,1008.2,VALID,0,INVALID,111.077,VALID,0,VALID,24.3956,VALID,47,VALID,0,
2014-04-26, 01:56:04,VALID,1008.2,VALID,0,INVALID,111.054,VALID,0,VALID,24.4364,VALID,47,VALID,0,
2014-04-26, 01:57:04,VALID,1008.18,VALID,0,INVALID,111.061,VALID,0,VALID,24.3937,VALID,47,VALID,0,
2014-04-26, 01:58:04,VALID,1008.18,VALID,0,INVALID,111.084,VALID,0,VALID,24.415,VALID,47,VALID,0,
2014-04-26, 01:59:04,VALID,1008.17,VALID,0,INVALID,111.13,VALID,0,VALID,24.415,VALID,47,VALID,0,
2014-04-26, 02:00:04,VALID,1008.14,VALID,0,INVALID,111.1,VALID,0,VALID,24.3956,VALID,47,VALID,0,
2014-04-26, 02:01:04,VALID,1008.16,VALID,0,INVALID,111.084,VALID,0,VALID,24.3956,VALID,47,VALID,0,
2014-04-26, 02:02:04,VALID,1008.13,VALID,0,INVALID,111.138,VALID,0,VALID,24.3761,VALID,47,VALID,0,
2014-04-26, 02:03:04,VALID,1008.12,VALID,0,INVALID,111.168,VALID,0,VALID,24.3176,VALID,47,VALID,0,
2014-04-26, 02:04:04,VALID,1008.11,VALID,0,INVALID,111.168,VALID,0,VALID,24.2768,VALID,47,VALID,0,
2014-04-26, 02:05:04,VALID,1008.1,VALID,0,INVALID,111.222,VALID,0,VALID,24.2573,VALID,47,VALID,0,
2014-04-26, 02:06:04,VALID,1008.14,VALID,0,INVALID,111.168,VALID,0,VALID,24.2183,VALID,47,VALID,0,
2014-04-26, 02:07:04,VALID,1008.12,VALID,0,INVALID,111.206,VALID,0,VALID,24.2202,VALID,47,VALID,0,
2014-04-26, 02:08:04,VALID,1008.12,VALID,0,INVALID,111.145,VALID,0,VALID,24.1793,VALID,47,VALID,0,
2014-04-26, 02:09:04,VALID,1008.15,VALID,0,INVALID,111.183,VALID,0,VALID,24.1812,VALID,47,VALID,0,
2014-04-26, 02:10:04,VALID,1008.12,VALID,0,INVALID,111.168,VALID,0,VALID,24.1404,VALID,47,VALID,0,
2014-04-26, 02:11:04,VALID,1008.14,VALID,0,INVALID,111.206,VALID,0,VALID,24.1227,VALID,47,VALID,0,
2014-04-26, 02:12:04,VALID,1008.15,VALID,0,INVALID,111.214,VALID,0,VALID,24.1014,VALID,47,VALID,0,
2014-04-26, 02:13:04,VALID,1008.12,VALID,0,INVALID,111.183,VALID,0,VALID,24.1032,VALID,47,VALID,0,
2014-04-26, 02:14:04,VALID,1008.14,VALID,0,INVALID,111.229,VALID,0,VALID,24.1032,VALID,47,VALID,0,
2014-04-26, 02:15:04,VALID,1008.14,VALID,0,INVALID,111.206,VALID,0,VALID,24.1032,VALID,47,VALID,0,
2014-04-26, 02:16:04,VALID,1008.16,VALID,0,INVALID,111.206,VALID,0,VALID,24.0837,VALID,47,VALID,0,
2014-04-26, 02:17:04,VALID,1008.15,VALID,0,INVALID,111.199,VALID,0,VALID,24.1032,VALID,47,VALID,0,
2014-04-26, 02:18:04,VALID,1008.15,VALID,0,INVALID,111.191,VALID,0,VALID,24.0819,VALID,47,VALID,0,
2014-04-26, 02:19:04,VALID,1008.14,VALID,0,INVALID,111.176,VALID,0,VALID,24.0624,VALID,47,VALID,0,
2014-04-26, 02:20:04,VALID,1008.15,VALID,0,INVALID,111.176,VALID,0,VALID,24.0837,VALID,47,VALID,0,
2014-04-26, 02:21:04,VALID,1008.15,VALID,0,INVALID,111.191,VALID,0,VALID,24.0429,VALID,47,VALID,0,
2014-04-26, 02:22:04,VALID,1008.11,VALID,0,INVALID,111.206,VALID,0.112112,VALID,24.0429,VALID,47,VALID,0,
2014-04-26, 02:23:04,VALID,1008.1,VALID,0,INVALID,111.145,VALID,0,VALID,24.0643,VALID,47,VALID,0,
2014-04-26, 02:24:04,VALID,1008.1,VALID,0,INVALID,111.176,VALID,0,VALID,24.0837,VALID,47,VALID,0,
2014-04-26, 02:25:04,VALID,1008.09,VALID,0,INVALID,111.13,VALID,0,VALID,24.0819,VALID,47,VALID,0,
2014-04-26, 02:26:04,VALID,1008.07,VALID,0,INVALID,111.13,VALID,0,VALID,24.1032,VALID,47,VALID,0,
2014-04-26, 02:27:04,VALID,1008.05,VALID,0,INVALID,111.1,VALID,0,VALID,24.1014,VALID,47,VALID,0,
2014-04-26, 02:28:04,VALID,1008.04,VALID,0,INVALID,111.107,VALID,0,VALID,24.1227,VALID,47,VALID,0,
2014-04-26, 02:29:04,VALID,1008.01,VALID,0,INVALID,111.122,VALID,0,VALID,24.1404,VALID,47,VALID,0,
2014-04-26, 02:30:04,VALID,1008,VALID,0,INVALID,111.054,VALID,0.112112,VALID,24.1599,VALID,47,VALID,0,
2014-04-26, 02:31:04,VALID,1007.98,VALID,0,INVALID,111.039,VALID,0,VALID,24.1599,VALID,47,VALID,0,
2014-04-26, 02:32:04,VALID,1007.98,VALID,0,INVALID,111.046,VALID,0,VALID,24.1793,VALID,47,VALID,0,
2014-04-26, 02:33:04,VALID,1007.99,VALID,0,INVALID,111.061,VALID,0,VALID,24.1793,VALID,47,VALID,0,
2014-04-26, 02:34:04,VALID,1007.99,VALID,0,INVALID,111.046,VALID,0,VALID,24.2007,VALID,47,VALID,0,
2014-04-26, 02:35:04,VALID,1007.97,VALID,0,INVALID,111.069,VALID,0,VALID,24.1812,VALID,47,VALID,0,
2014-04-26, 02:36:04,VALID,1007.97,VALID,0,INVALID,111.069,VALID,0,VALID,24.1599,VALID,47,VALID,0,
2014-04-26, 02:37:04,VALID,1007.96,VALID,0,INVALID,111.084,VALID,0,VALID,24.1599,VALID,47,VALID,0,
2014-04-26, 02:38:04,VALID,1008,VALID,0,INVALID,111.061,VALID,0,VALID,24.1812,VALID,47,VALID,0,
2014-04-26, 02:39:04,VALID,1008,VALID,0,INVALID,111.084,VALID,0,VALID,24.1812,VALID,47,VALID,0,
2014-04-26, 02:40:04,VALID,1008.02,VALID,0,INVALID,111.084,VALID,0,VALID,24.1599,VALID,47,VALID,0,
2014-04-26, 02:41:04,VALID,1008,VALID,0,INVALID,111.069,VALID,0.112112,VALID,24.1793,VALID,47,VALID,0,
2014-04-26, 02:42:04,VALID,1008.02,VALID,0,INVALID,111.061,VALID,0,VALID,24.1599,VALID,47,VALID,0,
2014-04-26, 02:43:04,VALID,1008.02,VALID,0,INVALID,111.107,VALID,0,VALID,24.1599,VALID,47,VALID,0,
2014-04-26, 02:44:04,VALID,1008.04,VALID,0,INVALID,111.115,VALID,0,VALID,24.1617,VALID,47,VALID,0,
2014-04-26, 02:45:04,VALID,1008.04,VALID,0,INVALID,111.13,VALID,0,VALID,24.1422,VALID,47,VALID,0,
2014-04-26, 02:46:04,VALID,1008.04,VALID,0,INVALID,111.138,VALID,0,VALID,24.1422,VALID,47,VALID,0,
2014-04-26, 02:47:04,VALID,1008.04,VALID,0,INVALID,111.13,VALID,0,VALID,24.1014,VALID,47,VALID,0,
2014-04-26, 02:48:04,VALID,1008.06,VALID,0,INVALID,111.13,VALID,0,VALID,24.1014,VALID,47,VALID,0,
2014-04-26, 02:49:04,VALID,1008.07,VALID,0,INVALID,111.183,VALID,0,VALID,24.1014,VALID,47,VALID,0,
2014-04-26, 02:50:04,VALID,1008.06,VALID,0,INVALID,111.145,VALID,0,VALID,24.1032,VALID,47,VALID,0,
2014-04-26, 02:51:04,VALID,1008.06,VALID,0,INVALID,111.199,VALID,0,VALID,24.0819,VALID,47,VALID,0,
2014-04-26, 02:52:04,VALID,1008.06,VALID,0,INVALID,111.168,VALID,0,VALID,24.0837,VALID,47,VALID,0,
2014-04-26, 02:53:04,VALID,1008.03,VALID,0,INVALID,111.183,VALID,0,VALID,24.0837,VALID,47,VALID,0,
2014-04-26, 02:54:04,VALID,1008.06,VALID,0,INVALID,111.206,VALID,0,VALID,24.0837,VALID,47,VALID,0,
2014-04-26, 02:55:04,VALID,1008.06,VALID,0,INVALID,111.153,VALID,0,VALID,24.0624,VALID,47,VALID,0,
2014-04-26, 02:56:04,VALID,1008.06,VALID,0,INVALID,111.1,VALID,0,VALID,24.0624,VALID,47,VALID,0,
2014-04-26, 02:57:04,VALID,1008.05,VALID,0,INVALID,111.13,VALID,0,VALID,24.0624,VALID,47,VALID,0,
2014-04-26, 02:58:04,VALID,1008.06,VALID,0,INVALID,111.122,VALID,0,VALID,24.0624,VALID,47,VALID,0,
2014-04-26, 02:59:04,VALID,1008.08,VALID,0,INVALID,111.183,VALID,0,VALID,24.0643,VALID,47,VALID,0,
2014-04-26, 03:00:04,VALID,1008.09,VALID,0,INVALID,111.168,VALID,0,VALID,24.0429,VALID,47,VALID,0,
2014-04-26, 03:01:04,VALID,1008.07,VALID,0,INVALID,111.13,VALID,0,VALID,24.0643,VALID,47,VALID,0,
2014-04-26, 03:02:04,VALID,1008.07,VALID,0,INVALID,111.138,VALID,0,VALID,24.0429,VALID,47,VALID,0,
2014-04-26, 03:03:04,VALID,1008.08,VALID,0,INVALID,111.138,VALID,0,VALID,24.0429,VALID,47,VALID,0,
2014-04-26, 03:04:04,VALID,1008.08,VALID,0,INVALID,111.122,VALID,0,VALID,24.0429,VALID,47,VALID,0,
2014-04-26, 03:05:04,VALID,1008.07,VALID,0,INVALID,111.153,VALID,0,VALID,24.0235,VALID,47,VALID,0,
2014-04-26, 03:06:04,VALID,1008.08,VALID,0,INVALID,111.161,VALID,0,VALID,24.0253,VALID,47,VALID,0,
2014-04-26, 03:07:04,VALID,1008.1,VALID,0,INVALID,111.206,VALID,0,VALID,23.9668,VALID,47,VALID,0,
2014-04-26, 03:08:04,VALID,1008.09,VALID,0,INVALID,111.26,VALID,0,VALID,23.9278,VALID,47,VALID,0,
2014-04-26, 03:09:04,VALID,1008.11,VALID,0,INVALID,111.29,VALID,0,VALID,23.9084,VALID,47,VALID,0,
2014-04-26, 03:10:04,VALID,1008.1,VALID,0,INVALID,111.275,VALID,0,VALID,23.8676,VALID,47,VALID,0,
2014-04-26, 03:11:04,VALID,1008.11,VALID,0,INVALID,111.267,VALID,0,VALID,23.8694,VALID,47,VALID,0,
2014-04-26, 03:12:04,VALID,1008.1,VALID,0,INVALID,111.267,VALID,0,VALID,23.8286,VALID,47,VALID,0,
2014-04-26, 03:13:04,VALID,1008.09,VALID,0,INVALID,111.252,VALID,0,VALID,23.8304,VALID,47,VALID,0,
2014-04-26, 03:14:04,VALID,1008.11,VALID,0,INVALID,111.206,VALID,0,VALID,23.8481,VALID,47,VALID,0,
2014-04-26, 03:15:04,VALID,1008.11,VALID,0,INVALID,111.191,VALID,0,VALID,23.8676,VALID,47,VALID,0,
2014-04-26, 03:16:04,VALID,1008.09,VALID,0,INVALID,111.138,VALID,0,VALID,23.9084,VALID,47,VALID,0,
2014-04-26, 03:17:04,VALID,1008.1,VALID,0,INVALID,111.122,VALID,0,VALID,23.926,VALID,47,VALID,0,
2014-04-26, 03:18:04,VALID,1008.11,VALID,0,INVALID,111.054,VALID,0,VALID,23.9455,VALID,47,VALID,0,
2014-04-26, 03:19:04,VALID,1008.12,VALID,0,INVALID,111.084,VALID,0,VALID,23.9455,VALID,47,VALID,0,
2014-04-26, 03:20:04,VALID,1008.09,VALID,0,INVALID,111.1,VALID,0,VALID,23.9473,VALID,47,VALID,0,
2014-04-26, 03:21:04,VALID,1008.1,VALID,0,INVALID,111.115,VALID,0,VALID,23.9473,VALID,47,VALID,0,
2014-04-26, 03:22:04,VALID,1008.11,VALID,0,INVALID,111.122,VALID,0,VALID,23.926,VALID,47,VALID,0,
2014-04-26, 03:23:04,VALID,1008.09,VALID,0,INVALID,111.176,VALID,0,VALID,23.9065,VALID,47,VALID,0,
2014-04-26, 03:24:04,VALID,1008.1,VALID,0,INVALID,111.206,VALID,0,VALID,23.8871,VALID,47,VALID,0,
2014-04-26, 03:25:04,VALID,1008.11,VALID,0,INVALID,111.153,VALID,0,VALID,23.8871,VALID,47,VALID,0,
2014-04-26, 03:26:04,VALID,1008.09,VALID,0,INVALID,111.199,VALID,0,VALID,23.8871,VALID,47,VALID,0,
2014-04-26, 03:27:04,VALID,1008.1,VALID,0,INVALID,111.138,VALID,0,VALID,23.8871,VALID,47,VALID,0,
2014-04-26, 03:28:04,VALID,1008.1,VALID,0,INVALID,111.138,VALID,0,VALID,23.9278,VALID,47,VALID,0,
2014-04-26, 03:29:04,VALID,1008.12,VALID,0,INVALID,111.122,VALID,0,VALID,23.9455,VALID,47,VALID,0,
2014-04-26, 03:30:05,VALID,1008.16,VALID,0,INVALID,111.107,VALID,0,VALID,23.9863,VALID,47,VALID,0,
2014-04-26, 03:31:05,VALID,1008.16,VALID,0,INVALID,111.054,VALID,0,VALID,24.0058,VALID,47,VALID,0,
2014-04-26, 03:32:05,VALID,1008.17,VALID,0,INVALID,111.039,VALID,0.112112,VALID,24.004,VALID,47,VALID,0,
2014-04-26, 03:33:05,VALID,1008.18,VALID,0,INVALID,111.016,VALID,0,VALID,24.0253,VALID,47,VALID,0,
2014-04-26, 03:34:05,VALID,1008.22,VALID,0,INVALID,110.978,VALID,0,VALID,24.0429,VALID,65,VALID,0,
2014-04-26, 03:35:05,VALID,1008.22,VALID,0,INVALID,110.985,VALID,0,VALID,24.0837,VALID,65,VALID,0,
2014-04-26, 03:36:05,VALID,1008.26,VALID,0,INVALID,110.993,VALID,0,VALID,24.1032,VALID,65,VALID,0,
2014-04-26, 03:37:05,VALID,1008.24,VALID,0,INVALID,110.97,VALID,0,VALID,24.1227,VALID,65,VALID,0,
2014-04-26, 03:38:05,VALID,1008.26,VALID,0,INVALID,111.023,VALID,0,VALID,24.1209,VALID,65,VALID,0,
2014-04-26, 03:39:05,VALID,1008.26,VALID,0,INVALID,111.054,VALID,0,VALID,24.1209,VALID,65,VALID,0,
2014-04-26, 03:40:05,VALID,1008.27,VALID,0,INVALID,111.084,VALID,0,VALID,24.1209,VALID,65,VALID,0,
2014-04-26, 03:41:05,VALID,1008.24,VALID,0,INVALID,111.077,VALID,0,VALID,24.1209,VALID,65,VALID,0,
2014-04-26, 03:42:05,VALID,1008.26,VALID,0,INVALID,111.1,VALID,0,VALID,24.1617,VALID,65,VALID,0,
2014-04-26, 03:43:05,VALID,1008.27,VALID,0,INVALID,111.1,VALID,0,VALID,24.1599,VALID,65,VALID,0,
2014-04-26, 03:44:05,VALID,1008.29,VALID,0,INVALID,111.084,VALID,0,VALID,24.1404,VALID,65,VALID,0,
2014-04-26, 03:45:05,VALID,1008.25,VALID,0,INVALID,111.092,VALID,0,VALID,24.1793,VALID,65,VALID,0,
2014-04-26, 03:46:05,VALID,1008.26,VALID,0,INVALID,111.138,VALID,0,VALID,24.1988,VALID,65,VALID,0,
2014-04-26, 03:47:05,VALID,1008.24,VALID,0,INVALID,111.153,VALID,0,VALID,24.1988,VALID,65,VALID,0,
2014-04-26, 03:48:05,VALID,1008.27,VALID,0,INVALID,111.092,VALID,0,VALID,24.2378,VALID,65,VALID,0,
2014-04-26, 03:49:05,VALID,1008.28,VALID,0,INVALID,111.13,VALID,0,VALID,24.2396,VALID,65,VALID,0,
2014-04-26, 03:50:05,VALID,1008.29,VALID,0,INVALID,111.168,VALID,0,VALID,24.2202,VALID,65,VALID,0,
2014-04-26, 03:51:05,VALID,1008.26,VALID,0,INVALID,111.161,VALID,0,VALID,24.2183,VALID,65,VALID,0,
2014-04-26, 03:52:05,VALID,1008.27,VALID,0,INVALID,111.199,VALID,0,VALID,24.2786,VALID,65,VALID,0,
2014-04-26, 03:53:05,VALID,1008.29,VALID,0,INVALID,111.161,VALID,0,VALID,24.3176,VALID,85,VALID,0,
2014-04-26, 03:54:05,VALID,1008.26,VALID,0,INVALID,111.191,VALID,0,VALID,24.2981,VALID,85,VALID,0,
2014-04-26, 03:55:05,VALID,1008.26,VALID,0,INVALID,111.206,VALID,0,VALID,24.3389,VALID,101,VALID,0,
2014-04-26, 03:56:05,VALID,1008.27,VALID,0,INVALID,111.252,VALID,0,VALID,24.3176,VALID,112,VALID,0,
2014-04-26, 03:57:05,VALID,1008.29,VALID,0,INVALID,111.244,VALID,0,VALID,24.2981,VALID,112,VALID,0,
2014-04-26, 03:58:05,VALID,1008.29,VALID,0,INVALID,111.237,VALID,0,VALID,24.2981,VALID,112,VALID,0,
2014-04-26, 03:59:05,VALID,1008.33,VALID,0,INVALID,111.26,VALID,0,VALID,24.2981,VALID,112,VALID,0,